Location: Bermeries
(50.2863°N, 3.7551°E)
Time: 01:54:22
(UTC+00:00)

Cosmos 841 Rocket - Pass Details

Date: 23 May 2024
Orbit: 744 x 770 km, 74.0° (Epoch: 16 June)

Event Time Altitude Azimuth Distance (km) Brightness Sun altitude
Rises 00:23:45 0° 338° (NNW) 3,231 7.7 -18.5°
Reaches altitude 10° 00:26:12 10° 345° (NNW) 2,305 6.9 -18.4°
Maximum altitude 00:31:16 47° 59° (ENE) 1,008 4.4 -18.2°
Drops below altitude 10° 00:36:18 10° 133° (SE) 2,305 5.7 -18.1°
Enters shadow 00:36:24 10° 134° (SE) 2,337 5.7 -18.1°
